Stations météo

réclame
Mon MeteoGroup
Grenoble/St.Geoirs, France (7486): Température de l'air & dewpoint: 18.02.2018 15:00:00 - 24.02.2018 15:00:00 (CET)Grenoble/St.Geoirs, France (7486): Température de l'air 5cm: 18.02.2018 15:00:00 - 24.02.2018 15:00:00 (CET)Grenoble/St.Geoirs, France (7486): Température de l'air -20cm & Température de l'air -100cm: 18.02.2018 15:00:00 - 24.02.2018 15:00:00 (CET)Grenoble/St.Geoirs, France (7486): Vitesse du vent & gusts: 18.02.2018 15:00:00 - 24.02.2018 15:00:00 (CET)Grenoble/St.Geoirs, France (7486): Direction du vent: 18.02.2018 15:00:00 - 24.02.2018 15:00:00 (CET)Grenoble/St.Geoirs, France (7486): reduced air pressure: 18.02.2018 15:00:00 - 24.02.2018 15:00:00 (CET)Grenoble/St.Geoirs, France (7486): visibility: 18.02.2018 15:00:00 - 24.02.2018 15:00:00 (CET)Grenoble/St.Geoirs, France (7486): Ensoleillement: 18.02.2018 15:00:00 - 24.02.2018 15:00:00 (CET)Grenoble/St.Geoirs, France (7486): Quantités de précipitations: 18.02.2018 15:00:00 - 24.02.2018 15:00:00 (CET)
Date & Time tt [°C] td [°C] tt 5cm [°C] tt -20cm [°C] tt -100cm [°C] ff [km/h] ff [knt] fx [km/h] fx [knt] dd ppp [hPa] vv [km] sd [min] rr [mm]
24.02.2018 15:00:00 2,0 -3,1 3,0 3,6 6,3 18 10 28 15 NNE 1011,0 7 0 0,0
24.02.2018 14:00:00 2,3 -3,0 3,6 3,5 6,3 15 8 22 12 NNE 1010,9 7 11 0,0
24.02.2018 13:00:00 2,8 -3,1 4,7 3,5 6,3 13 7 22 12 NE 1010,8 7 4 0,0
24.02.2018 12:00:00 1,7 -3,4 2,9 3,6 6,4 16 9 28 15 NNE 1011,5 7 0 0,0
24.02.2018 11:00:00 1,0 -3,9 1,5 3,6 6,3 17 9 27 14 NNE 1011,4 7 0 0,0
24.02.2018 10:00:00 0,1 -4,2 0,2 3,6 6,3 13 7 23 12 NNE 1011,5 6 0 0,0
24.02.2018 09:00:00 -0,7 -4,1 -1,4 3,7 6,3 12 6 19 11 NNE 1011,5 6 22 0,0
24.02.2018 08:00:00 -1,8 -4,5 -2,4 3,7 6,3 10 6 15 8 N 1011,5 5 9 0,0
24.02.2018 07:00:00 -2,3 -5,0 -3,5 3,7 6,3 5 3 13 7 N 1011,2 5 0 0,0
24.02.2018 06:00:00 -2,3 -5,0 -2,9 3,8 6,3 5 3 16 9 NE 1011,1 6 0 0,0
24.02.2018 05:00:00 -2,0 -4,7 -2,7 3,8 6,4 10 6 14 8 N 1011,2 6 0 0,0
24.02.2018 04:00:00 -1,8 -4,5 -2,5 3,8 6,4 8 4 14 8 NNE 1011,2 6 0 0,0
24.02.2018 03:00:00 -1,3 -4,5 -2,0 3,9 6,4 8 4 28 15 NNE 1011,4 7 0 0,0
24.02.2018 02:00:00 -0,4 -4,7 -0,8 3,9 6,4 22 12 32 18 NE 1011,3 7 0 0,0
24.02.2018 01:00:00 -0,2 -4,6 -0,7 3,9 6,4 16 9 31 17 NNE 1011,0 7 0 0,0
24.02.2018 00:00:00 -0,2 -4,5 -0,7 3,9 6,4 17 9 29 16 NNE 1011,1 7 0 0,0
23.02.2018 23:00:00 -0,1 -4,2 -0,5 3,9 6,4 12 7 24 13 NNE 1010,8 7 0 0,0
23.02.2018 22:00:00 0,4 -4,3 0,2 3,9 6,4 14 7 23 13 NNE 1011,4 8 0 0,0
23.02.2018 21:00:00 0,7 -3,8 0,4 3,9 6,4 10 5 19 10 N 1011,2 8 0 0,0
23.02.2018 20:00:00 0,8 -3,5 0,6 3,9 6,4 8 5 18 10 N 1011,0 9 0 0,0
23.02.2018 19:00:00 1,0 -3,7 0,7 3,9 6,4 6 4 10 6 NNE 1010,8 8 0 0,0
23.02.2018 18:00:00 1,3 -4,0 1,1 3,8 6,4 6 4 16 9 NNE 1010,4 8 0 0,0
23.02.2018 17:00:00 1,4 -4,3 1,8 3,8 6,4 11 6 18 10 NNE 1010,2 8 0 0,0
23.02.2018 16:00:00 1,5 -4,4 2,2 3,8 6,4 10 5 24 13 N 1010,1 8 0 0,0
23.02.2018 15:00:00 1,7 -4,0 2,8 3,8 6,4 16 9 24 13 NNE 1009,9 8 0 0,0
23.02.2018 14:00:00 1,4 -3,9 2,1 3,7 6,4 16 9 25 14 NNE 1010,3 8 0 0,0
23.02.2018 13:00:00 0,8 -4,4 2,0 3,8 6,4 14 8 23 13 N 1010,6 8 0 0,0
23.02.2018 12:00:00 0,3 -4,5 0,8 3,8 6,4 13 7 19 10 NNW 1011,1 7 0 0,0
23.02.2018 11:00:00 -0,6 -4,7 0,0 3,8 6,4 10 5 16 9 NNW 1011,2 7 0 0,0
23.02.2018 10:00:00 -0,9 -4,8 -1,1 3,8 6,5 12 7 17 9 NNW 1011,1 7 0 0,0
23.02.2018 09:00:00 -1,3 -4,8 -1,3 3,9 6,5 13 7 22 12 N 1010,6 6 0 0,0
23.02.2018 08:00:00 -1,5 -4,7 -1,5 3,9 6,5 14 8 19 11 N 1010,7 6 0 0,0
23.02.2018 07:00:00 -1,5 -4,7 -1,5 3,9 6,5 12 7 19 11 N 1010,4 6 0 0,0
23.02.2018 06:00:00 -1,4 -4,6 -1,4 3,9 6,5 14 8 19 10 N 1010,2 6 0 0,0
23.02.2018 05:00:00 -1,3 -4,6 -1,4 4,0 6,5 11 6 21 11 N 1010,4 6 0 0,0
23.02.2018 04:00:00 -1,0 -4,5 -1,3 4,0 6,5 13 7 21 11 N 1010,4 6 0 0,0
23.02.2018 03:00:00 -1,2 -4,9 -1,4 4,0 6,5 9 5 12 7 W 1010,9 7 0 0,0
23.02.2018 02:00:00 -1,1 -5,0 -1,4 4,1 6,5 6 3 13 7 WNW 1011,1 7 0 0,0
23.02.2018 01:00:00 -1,0 -4,9 -1,4 4,1 6,5 4 2 11 6 N 1011,3 7 0 0,0
23.02.2018 00:00:00 -1,0 -5,1 -1,3 4,1 6,5 4 2 13 7 W 1011,5 7 0 0,0
22.02.2018 23:00:00 -0,8 -5,2 -1,2 4,1 6,5 5 3 16 9 NNW 1011,8 8 0 0,0
22.02.2018 22:00:00 -0,7 -4,9 -0,9 4,2 6,5 8 5 16 9 NNW 1011,6 8 0 0,0
22.02.2018 21:00:00 -0,6 -5,2 -0,9 4,1 6,5 5 3 15 8 W 1011,5 8 0 0,0
22.02.2018 20:00:00 -0,5 -5,3 -0,7 4,2 6,5 4 2 15 8 S 1011,2 8 0 0,0
22.02.2018 19:00:00 -0,3 -4,7 -0,4 4,1 6,5 11 6 25 13 N 1011,2 8 0 0,0
22.02.2018 18:00:00 0,1 -4,5 0,0 4,1 6,5 9 5 29 15 N 1010,7 8 0 0,0
22.02.2018 17:00:00 0,2 -4,4 0,3 4,1 6,5 11 6 24 13 N 1010,5 8 0 0,0
22.02.2018 16:00:00 0,4 -4,3 0,6 4,1 6,5 15 8 32 17 N 1010,2 8 0 0,0
22.02.2018 15:00:00 0,6 -4,1 1,6 4,0 6,5 21 12 32 18 N 1010,0 8 0 0,0
22.02.2018 14:00:00 0,7 -4,0 2,2 4,0 6,5 10 5 25 13 NW 1010,0 8 0 0,0
22.02.2018 13:00:00 0,6 -4,1 2,1 4,0 6,5 16 8 24 13 N 1010,0 8 0 0,0
22.02.2018 12:00:00 0,2 -3,9 1,0 4,1 6,5 9 5 24 13 NW 1010,3 8 0 0,0
22.02.2018 11:00:00 -0,6 -4,8 0,0 4,1 6,6 8 4 21 11 NNW 1010,3 8 0 0,0
22.02.2018 10:00:00 -0,8 -4,7 -0,6 4,1 6,6 6 3 12 6 NW 1010,2 6 0 0,0
22.02.2018 09:00:00 -0,9 -4,8 -0,9 4,2 6,5 7 4 16 8 N 1010,1 6 0 0,0
22.02.2018 08:00:00 -0,8 -4,9 -0,9 4,2 6,6 9 5 20 11 NNW 1010,0 7 0 0,0
22.02.2018 07:00:00 -0,6 -4,5 -0,9 4,2 6,5 12 7 22 12 NNW 1009,9 7 0 0,0
22.02.2018 06:00:00 -0,5 -4,4 -0,8 4,3 6,6 7 4 18 10 SSW 1010,0 7 0 0,0
22.02.2018 05:00:00 -0,3 -4,4 -0,4 4,3 6,6 10 5 25 13 NNE 1010,0 7 0 0,0
22.02.2018 04:00:00 0,0 -3,9 -0,1 4,3 6,6 18 10 29 16 N 1010,3 7 0 0,0
22.02.2018 03:00:00 0,3 -3,8 0,1 4,4 6,6 22 12 32 17 N 1010,8 7 0 0,0
22.02.2018 02:00:00 0,5 -3,6 0,3 4,4 6,6 21 12 29 15 N 1011,1 8 0 0,0
22.02.2018 01:00:00 0,6 -3,7 0,4 4,4 6,6 16 9 22 12 N 1011,7 9 0 0,0
22.02.2018 00:00:00 0,7 -4,0 0,5 4,4 6,6 17 9 24 13 N 1012,1 11 0 0,0
21.02.2018 23:00:00 0,8 -4,4 0,4 4,5 6,6 13 7 20 11 N 1012,6 15 0 0,0
21.02.2018 22:00:00 0,8 -4,1 0,4 4,5 6,6 13 7 16 9 N 1013,1 12 0 0,0
21.02.2018 21:00:00 0,9 -3,8 0,6 4,5 6,6 9 5 15 8 N 1013,3 12 0 0,0
21.02.2018 20:00:00 1,2 -3,7 0,8 4,5 6,6 11 6 16 9 N 1013,3 12 0 0,0
21.02.2018 19:00:00 1,4 -3,7 1,2 4,5 6,6 12 6 24 13 N 1013,5 13 0 0,0
21.02.2018 18:00:00 1,7 -3,8 1,4 4,5 6,6 16 9 27 15 N 1013,3 13 0 0,0
21.02.2018 17:00:00 1,9 -4,0 1,9 4,5 6,6 16 8 27 15 N 1013,3 15 0 0,0
21.02.2018 16:00:00 1,9 -3,8 1,9 4,5 6,6 18 10 32 18 NNW 1013,4 13 0 0,0
21.02.2018 15:00:00 1,6 -3,7 1,9 4,5 6,6 20 11 32 17 N 1013,8 11 0 0,0
21.02.2018 14:00:00 1,7 -4,2 2,3 4,5 6,6 13 7 31 17 N 1014,2 14 0 0,0
21.02.2018 13:00:00 1,2 -4,1 2,3 4,5 6,6 21 12 34 18 N 1014,2 12 0 0,0
21.02.2018 12:00:00 0,6 -4,2 1,4 4,6 6,6 22 12 36 19 N 1014,2 12 0 0,0
21.02.2018 11:00:00 -0,1 -4,4 0,3 4,7 6,6 21 11 37 20 N 1014,0 11 0 0,0
21.02.2018 10:00:00 -0,9 -4,8 -1,4 4,7 6,6 21 11 34 18 N 1013,9 11 0 0,0
21.02.2018 09:00:00 -2,0 -4,7 -2,6 4,8 6,6 19 10 29 16 N 1014,0 9 0 0,0
21.02.2018 08:00:00 -2,4 -4,7 -2,8 4,8 6,6 18 10 27 15 N 1014,1 8 0 0,0
21.02.2018 07:00:00 -2,1 -4,6 -2,5 4,9 6,6 24 13 37 20 N 1014,1 8 0 0,0
21.02.2018 06:00:00 -1,8 -4,3 -1,9 5,0 6,6 18 10 29 16 N 1014,1 8 0 0,0
21.02.2018 05:00:00 -1,8 -4,3 -1,9 5,0 6,6 15 8 37 20 N 1013,8 8 0 0,0
21.02.2018 04:00:00 -1,3 -3,8 -1,3 5,1 6,6 22 12 32 17 N 1014,0 8 0 0,0
21.02.2018 03:00:00 -0,9 -3,6 -1,1 5,1 6,6 26 14 42 23 N 1014,3 8 0 0,0
21.02.2018 02:00:00 -0,8 -3,7 -1,0 5,1 6,6 27 15 39 21 N 1014,4 8 0 0,0
21.02.2018 01:00:00 -0,2 -3,4 -0,2 5,2 6,6 22 12 35 19 N 1014,3 10 0 0,0
21.02.2018 00:00:00 0,7 -3,4 0,5 5,2 6,6 13 7 28 15 N 1013,8 13 0 0,0
20.02.2018 23:00:00 0,9 -3,4 0,4 5,3 6,6 10 5 37 20 N 1013,9 12 0 0,0
20.02.2018 22:00:00 1,8 -3,3 1,4 5,3 6,6 24 13 45 24 N 1013,5 14 0 0,0
20.02.2018 21:00:00 2,0 -2,7 1,3 5,3 6,6 24 13 43 23 N 1013,6 15 0 0,0
20.02.2018 20:00:00 2,3 -2,6 1,6 5,3 6,6 27 15 44 24 N 1013,7 17 0 0,0
20.02.2018 19:00:00 2,9 -3,0 2,4 5,2 6,6 30 16 42 23 N 1013,2 21 0 0,0
20.02.2018 18:00:00 3,8 -3,3 3,7 5,1 6,6 29 16 48 26 N 1012,6 23 30 0,0
20.02.2018 17:00:00 4,8 -2,8 5,0 5,0 6,6 26 14 41 22 N 1012,2 26 35 0,0
20.02.2018 16:00:00 6,3 -1,8 8,5 4,9 6,6 21 11 39 21 N 1011,7 23 60 0,0
20.02.2018 15:00:00 6,4 -2,2 10,1 4,8 6,6 26 14 39 21 NNW 1012,4 23 60 0,0
20.02.2018 14:00:00 6,0 -2,4 8,0 4,8 6,6 19 10 35 19 N 1012,6 20 57 0,0
20.02.2018 13:00:00 4,8 -1,7 7,6 4,8 6,6 14 8 29 15 N 1013,2 13 57 0,0
20.02.2018 12:00:00 4,0 -1,4 5,7 4,8 6,6 12 6 22 12 NNW 1013,7 13 46 0,0
20.02.2018 11:00:00 2,7 -1,5 2,9 4,8 6,6 15 8 23 12 N 1013,5 15 2 0,0
20.02.2018 10:00:00 1,8 -2,0 2,0 4,8 6,6 9 5 21 11 NNW 1014,1 15 0 0,0
20.02.2018 09:00:00 1,6 -1,8 1,5 4,9 6,6 19 11 31 17 N 1014,1 13 20 0,0
20.02.2018 08:00:00 1,2 -1,9 0,6 4,9 6,6 14 8 21 11 NNE 1013,8 12 5 0,0
20.02.2018 07:00:00 1,3 -1,8 0,8 5,0 6,6 6 3 18 10 NE 1014,1 11 0 0,0
20.02.2018 06:00:00 1,6 -1,7 0,9 5,1 6,6 9 5 19 11 NNW 1014,3 11 0 0,0
20.02.2018 05:00:00 1,3 -1,8 0,5 5,1 6,6 6 3 17 9 NNE 1014,7 10 0 0,0
20.02.2018 04:00:00 1,1 -1,6 -0,2 5,2 6,6 4 2 8 4 N 1015,1 11 0 0,0
20.02.2018 03:00:00 0,6 -2,1 -0,6 5,3 6,6 0 0 7 4 N 1015,6 10 0 0,0
20.02.2018 02:00:00 0,3 -1,6 -1,0 5,3 6,6 0 0 11 6 N 1016,1 9 0 0,0
20.02.2018 01:00:00 -0,4 -2,0 -1,5 5,4 6,6 5 3 6 4 S 1016,6 9 0 0,0
20.02.2018 00:00:00 -1,1 -2,4 -5,2 5,5 6,6 3 2 6 4 S 1017,1 9 0 0,0
19.02.2018 23:00:00 -1,7 -3,1 -6,0 5,5 6,6 4 2 8 5 E 1017,5 7 0 0,0
19.02.2018 22:00:00 -1,6 -3,6 -5,5 5,6 6,6 6 3 8 5 SE 1017,7 7 0 0,0
19.02.2018 21:00:00 -0,9 -2,9 -5,1 5,6 6,6 3 2 10 5 SE 1017,9 8 0 0,0
19.02.2018 20:00:00 -0,2 -2,9 -4,4 5,5 6,6 7 4 8 5 ESE 1017,9 13 0 0,0
19.02.2018 19:00:00 1,9 -2,4 -3,8 5,5 6,6 5 3 7 4 E 1017,6 14 0 0,0
19.02.2018 18:00:00 3,5 -0,9 1,7 5,3 6,5 4 2 11 6 NNE 1017,3 18 1 0,0
19.02.2018 17:00:00 4,6 -1,2 5,5 5,2 6,5 7 4 15 8 NNE 1017,2 20 8 0,0
19.02.2018 16:00:00 5,1 -1,2 7,4 5,1 6,6 11 6 20 11 N 1017,2 18 36 0,0
19.02.2018 15:00:00 5,8 -2,1 8,8 5,0 6,5 6 4 20 11 NNE 1017,5 29 29 0,0
19.02.2018 14:00:00 6,2 -1,7 8,2 5,0 6,5 3 1 10 5 ENE 1017,8 31 47 0,0
19.02.2018 13:00:00 4,7 -1,5 7,6 5,0 6,5 2 1 19 11 S 1018,7 32 20 0,0
19.02.2018 12:00:00 4,3 -1,5 6,1 5,0 6,5 4 2 11 6 S 1019,6 18 48 0,0
19.02.2018 11:00:00 2,4 -1,8 2,9 5,0 6,5 5 3 10 5 SW 1020,1 19 31 0,0
19.02.2018 10:00:00 1,0 -2,2 1,5 5,1 6,5 3 2 6 3 SW 1020,6 18 0 0,0
19.02.2018 09:00:00 0,1 -1,8 -1,9 5,2 6,5 5 3 9 5 W 1021,0 11 0 0,0
19.02.2018 08:00:00 -1,3 -3,0 -3,5 5,2 6,6 3 2 8 4 SW 1021,2 8 0 0,0
19.02.2018 07:00:00 -0,5 -2,9 -3,6 5,2 6,5 5 3 10 5 ENE 1020,8 11 0 0,0
19.02.2018 06:00:00 0,7 -1,5 0,2 5,3 6,5 6 4 14 8 NNW 1020,7 11 0 0,0
19.02.2018 05:00:00 0,7 -1,2 0,4 5,4 6,5 4 2 10 6 SW 1021,0 10 0 0,0
19.02.2018 04:00:00 0,8 -1,1 0,0 5,4 6,5 0 0 11 6 N 1021,0 10 0 0,0
19.02.2018 03:00:00 0,8 -0,8 -0,8 5,4 6,5 6 4 10 6 N 1021,4 10 0 0,0
19.02.2018 02:00:00 1,2 -1,0 0,5 5,5 6,5 2 1 13 7 N 1021,6 12 0 0,0
19.02.2018 01:00:00 1,5 -0,9 1,2 5,5 6,5 7 4 14 8 N 1021,9 15 0 0,0
19.02.2018 00:00:00 1,6 -1,1 1,3 5,5 6,5 4 2 18 10 NNE 1022,1 17 0 0,0
18.02.2018 23:00:00 1,7 -1,0 1,4 5,6 6,5 4 2 29 16 ESE 1022,3 15 0 0,0
18.02.2018 22:00:00 1,8 -0,6 1,5 5,6 6,5 22 12 34 19 N 1022,3 16 0 0,0
18.02.2018 21:00:00 2,3 -0,3 2,1 5,6 6,5 17 9 25 14 N 1022,7 17 0 0,0
18.02.2018 20:00:00 2,4 -0,4 2,3 5,6 6,5 17 9 22 12 N 1022,7 23 0 0,0
18.02.2018 19:00:00 2,7 -0,2 2,6 5,6 6,4 12 7 23 12 N 1023,0 31 0 0,0
18.02.2018 18:00:00 2,9 -0,2 2,9 5,6 6,4 15 8 22 12 N 1022,9 29 0 0,0
18.02.2018 17:00:00 3,1 -0,2 3,6 5,6 6,4 13 7 29 16 N 1022,9 29 0 0,0
18.02.2018 16:00:00 3,3 -0,3 4,1 5,6 6,4 23 13 33 18 N 1022,9 31 0 0,0
18.02.2018 15:00:00 3,3 -0,2 3,9 5,6 6,4 19 10 29 15 N 1023,3 29 0 0,0

tt = Température de l'air
td = dewpoint
tt 5cm = Température de l'air 5cm
tt -20cm = Température de l'air -20cm
tt -100cm = Température de l'air -100cm
ff = Vitesse du vent
fx = gusts
dd = Direction du vent
ppp = reduced air pressure
vv = visibility
sd = Ensoleillement
rr = Quantités de précipitations

stations d'obs. à proximité